Crestview, FL

3:11 PM CST on February 20, 2017 (GMT -0600)
Sikes

Weather History for KCEW - September, 2013

Change the Weather History Date:

Saturday, September 28, 2013

  Actual Average Record
Temperature  
Mean Temperature 72 °F -  
Max Temperature 84 °F 85 °F 93 °F (1977)
Min Temperature 60 °F 62 °F 46 °F (2001)
Cooling Degree Days 7    
Growing Degree Days 22 (Base 50)    
Moisture  
Dew Point 61 °F    
Average Humidity 73    
Maximum Humidity 93    
Minimum Humidity 44    
Precipitation  
Precipitation 0.00 in - - ()
Sea Level Pressure  
Sea Level Pressure 30.07 in    
Wind  
Wind Speed 3 mph (ENE)    
Max Wind Speed 13 mph    
Max Gust Speed 18 mph    
Visibility 10 miles    
Events      
Averages and records for this station are not official NWS values.
T = Trace of Precipitation, MM = Missing Value Source: NWS Daily Summary

Daily Weather History Graph

Daily Weather History Graph

Search for Another Location

Airport or City:

Trip Planner

Search our weather history database for the weather conditions in past years. The results will help you decide how hot, cold, wet, or windy it might be!

Date:

Astronomy

Sep. 28, 2013 Rise Set
Actual Time 6:38 AM CDT 6:34 PM CDT
Civil Twilight 6:13 AM CDT 6:58 PM CDT
Nautical Twilight 5:45 AM CDT 7:26 PM CDT
Astronomical Twilight 5:17 AM CDT 7:54 PM CDT
Moon 12:45 AM CDT (9/28) 2:34 PM CDT (9/28)
Length of Visible Light 12h 44m
Length of Day
11h 56m
Waning Crescent, 36% of the Moon is Illuminated
Sep 28
Waning Crescent
Oct 4
New
Oct 11
First Quarter
Oct 18
Full
Oct 26
Last Quarter

Hourly Weather History & Observations

Time (CDT) Temp. Heat Index Dew Point Humidity Pressure Visibility Wind Dir Wind Speed Gust Speed Precip Events Conditions
12:53 AM 60.1 °F - 57.9 °F 93% 30.06 in 6.0 mi Calm Calm - N/A   Clear
1:53 AM 60.1 °F - 57.0 °F 90% 30.05 in 10.0 mi Calm Calm - N/A   Clear
2:53 AM 60.1 °F - 57.0 °F 90% 30.05 in 10.0 mi Calm Calm - N/A   Partly Cloudy
3:53 AM 60.1 °F - 57.0 °F 90% 30.05 in 10.0 mi Calm Calm - N/A   Clear
4:53 AM 60.1 °F - 57.0 °F 90% 30.06 in 10.0 mi NNE 3.5 mph - N/A   Clear
5:53 AM 61.0 °F - 57.0 °F 87% 30.08 in 10.0 mi Calm Calm - N/A   Clear
6:53 AM 60.1 °F - 57.0 °F 90% 30.09 in 10.0 mi Calm Calm - N/A   Clear
7:53 AM 64.9 °F - 60.1 °F 84% 30.11 in 10.0 mi ENE 3.5 mph - N/A   Clear
8:53 AM 70.0 °F - 61.0 °F 73% 30.12 in 10.0 mi ENE 5.8 mph - N/A   Clear
9:53 AM 75.9 °F - 62.1 °F 62% 30.12 in 10.0 mi ENE 10.4 mph - N/A   Clear
10:53 AM 79.0 °F - 62.1 °F 56% 30.12 in 10.0 mi ENE 8.1 mph 16.1 mph N/A   Clear
11:53 AM 82.0 °F 83.0 °F 62.1 °F 51% 30.10 in 10.0 mi ENE 9.2 mph - N/A   Clear
12:53 PM 84.0 °F 84.9 °F 63.0 °F 49% 30.09 in 10.0 mi East 8.1 mph - N/A   Scattered Clouds
1:53 PM 84.9 °F 85.0 °F 61.0 °F 44% 30.06 in 10.0 mi East 6.9 mph - N/A   Scattered Clouds
2:53 PM 84.9 °F 85.0 °F 61.0 °F 44% 30.04 in 10.0 mi ENE 12.7 mph 18.4 mph N/A   Partly Cloudy
3:53 PM 84.9 °F 85.0 °F 61.0 °F 44% 30.04 in 10.0 mi NNE 8.1 mph - N/A   Partly Cloudy
4:53 PM 82.9 °F 83.3 °F 61.0 °F 47% 30.04 in 10.0 mi NNE 9.2 mph - N/A   Scattered Clouds
5:53 PM 79.0 °F - 62.1 °F 56% 30.04 in 10.0 mi ENE 3.5 mph - N/A   Clear
6:53 PM 73.0 °F - 64.0 °F 73% 30.04 in 10.0 mi Calm Calm - N/A   Clear
7:53 PM 70.0 °F - 64.9 °F 84% 30.06 in 10.0 mi Calm Calm - N/A   Clear
8:53 PM 66.9 °F - 63.0 °F 87% 30.07 in 10.0 mi Calm Calm - N/A   Clear
9:53 PM 66.0 °F - 62.1 °F 87% 30.08 in 10.0 mi Calm Calm - N/A   Clear
10:53 PM 64.0 °F - 62.1 °F 93% 30.09 in 10.0 mi Calm Calm - N/A   Clear
11:53 PM 64.0 °F - 60.1 °F 87% 30.09 in 10.0 mi Calm Calm - N/A   Clear